Weather History for Atlanta Dekalb, GA

Change the Weather History Date:

Thursday, April 24, 2014

  Actual Average Record
Temperature  
Mean Temperature 60 °F 64 °F  
Max Temperature 79 °F 76 °F 86 °F (1999)
Min Temperature 41 °F 52 °F 36 °F (2005)
Degree Days  
Heating Degree Days 5 3  
Month to date heating degree days 156 130  
Since 1 July heating degree days 3261 2899  
Cooling Degree Days 0 2  
Month to date cooling degree days 12 29  
Year to date cooling degree days 12 36  
Growing Degree Days 10 (Base 50)    
Moisture  
Dew Point 43 °F    
Average Humidity 60    
Maximum Humidity 89    
Minimum Humidity 31    
Precipitation  
Precipitation 0.00 in 0.14 in 0.91 in (2001)
Month to date precipitation 5.52 2.84  
Year to date precipitation 14.80 17.63  
Sea Level Pressure  
Sea Level Pressure 29.97 in    
Wind  
Wind Speed 3 mph (SSE)    
Max Wind Speed 13 mph    
Max Gust Speed 16 mph    
Visibility 10 miles    
Events      
T = Trace of Precipitation, MM = Missing Value Source: NWS Daily Summary

Daily Weather History Graph

Daily Weather History Graph

Search for Another Location

Airport:

Trip Planner

Search our weather history database for the weather conditions in past years. The results will help you decide how hot, cold, wet, or windy it might be!

Date:

Astronomy

Apr. 24, 2014 Rise Set
Actual Time 6:55 AM EDT 8:15 PM EDT
Civil Twilight 6:29 AM EDT 8:41 PM EDT
Nautical Twilight 5:58 AM EDT 9:12 PM EDT
Astronomical Twilight 5:25 AM EDT 9:45 PM EDT
Moon 3:51 AM EDT (4/24) 3:43 PM EDT (4/24)
Length of Visible Light 14h 12m
Length of Day
13h 19m
Waning Crescent, 24% of the Moon is Illuminated
Apr 24
Waning Crescent
Apr 29
New
May 6
First Quarter
May 14
Full
May 21
Last Quarter

Hourly Weather History & Observations

Time (EDT) Temp. Dew Point Humidity Pressure Visibility Wind Dir Wind Speed Gust Speed Precip Events Conditions
12:53 AM 50.0 °F 39.9 °F 68% 29.94 in 10.0 mi Calm Calm - N/A   Clear
1:53 AM 46.9 °F 39.9 °F 77% 29.94 in 10.0 mi Calm Calm - N/A   Clear
2:53 AM 45.0 °F 39.9 °F 82% 29.94 in 10.0 mi Calm Calm - N/A   Clear
3:53 AM 44.1 °F 39.9 °F 85% 29.95 in 10.0 mi Calm Calm - N/A   Clear
4:53 AM 44.1 °F 39.9 °F 85% 29.96 in 10.0 mi Calm Calm - N/A   Clear
5:53 AM 42.1 °F 39.0 °F 89% 29.99 in 10.0 mi Calm Calm - N/A   Clear
6:53 AM 44.1 °F 39.0 °F 82% 30.01 in 10.0 mi Calm Calm - N/A   Clear
7:53 AM 50.0 °F 39.0 °F 66% 30.03 in 10.0 mi Variable 3.5 mph - N/A   Clear
8:53 AM 55.9 °F 35.1 °F 45% 30.04 in 10.0 mi Variable 6.9 mph - N/A   Clear
9:53 AM 60.1 °F 35.1 °F 39% 30.06 in 10.0 mi Variable 6.9 mph - N/A   Clear
10:53 AM 64.0 °F 36.0 °F 35% 30.05 in 10.0 mi Variable 4.6 mph - N/A   Clear
11:53 AM 66.0 °F 37.0 °F 34% 30.06 in 10.0 mi Calm Calm - N/A   Clear
12:53 PM 72.0 °F 42.1 °F 34% 30.02 in 10.0 mi Variable 3.5 mph - N/A   Clear
1:53 PM 73.9 °F 41.0 °F 30% 29.99 in 10.0 mi South 3.5 mph - N/A   Clear
2:53 PM 75.0 °F 43.0 °F 32% 29.97 in 10.0 mi Calm Calm - N/A   Clear
3:53 PM 77.0 °F 46.0 °F 33% 29.96 in 10.0 mi South 10.4 mph - N/A   Partly Cloudy
4:53 PM 75.9 °F 46.9 °F 36% 29.94 in 10.0 mi Variable 4.6 mph - N/A   Mostly Cloudy
5:53 PM 79.0 °F 48.0 °F 34% 29.92 in 10.0 mi Variable 5.8 mph - N/A   Scattered Clouds
6:53 PM 77.0 °F 48.9 °F 37% 29.90 in 9.0 mi SSE 6.9 mph - N/A   Mostly Cloudy
7:53 PM 73.0 °F 50.0 °F 44% 29.89 in 10.0 mi SE 3.5 mph - N/A   Partly Cloudy
8:53 PM 70.0 °F 48.9 °F 47% 29.89 in 10.0 mi SE 3.5 mph - N/A   Clear
9:53 PM 66.9 °F 48.9 °F 52% 29.91 in 10.0 mi Calm Calm - N/A   Partly Cloudy
10:53 PM 64.0 °F 50.0 °F 60% 29.91 in 10.0 mi Calm Calm - N/A   Clear
11:53 PM 62.1 °F 50.0 °F 65% 29.90 in 10.0 mi Calm Calm - N/A   Mostly Cloudy